TimeCDT,TemperatureF,Dew PointF,Humidity,Sea Level PressureIn,VisibilityMPH,Wind Direction,Wind SpeedMPH,Gust SpeedMPH,PrecipitationIn,Events,Conditions,WindDirDegrees,DateUTC
12:15 AM,38.1,30.0,73,30.34,10.0,SE,4.6,-,N/A,,Clear,130,2013-04-26 05:15:00
12:35 AM,35.6,30.9,83,30.34,10.0,ESE,4.6,-,N/A,,Clear,120,2013-04-26 05:35:00
12:55 AM,37.4,31.3,79,30.35,10.0,SE,4.6,-,N/A,,Clear,130,2013-04-26 05:55:00
1:15 AM,37.6,30.2,75,30.35,10.0,SE,5.8,-,N/A,,Clear,140,2013-04-26 06:15:00
1:35 AM,37.9,29.8,73,30.35,10.0,SE,4.6,-,N/A,,Clear,130,2013-04-26 06:35:00
1:55 AM,36.0,30.4,80,30.35,10.0,ESE,3.5,-,N/A,,Clear,120,2013-04-26 06:55:00
2:15 AM,34.9,30.0,82,30.34,10.0,ESE,3.5,-,N/A,,Clear,120,2013-04-26 07:15:00
2:35 AM,34.5,30.7,86,30.35,10.0,Calm,Calm,-,N/A,,Clear,0,2013-04-26 07:35:00
2:55 AM,34.5,30.6,85,30.35,10.0,SE,3.5,-,N/A,,Clear,130,2013-04-26 07:55:00
3:15 AM,34.9,30.0,82,30.36,10.0,SE,3.5,-,N/A,,Clear,140,2013-04-26 08:15:00
3:35 AM,34.7,30.0,83,30.36,10.0,SE,3.5,-,N/A,,Clear,130,2013-04-26 08:35:00
3:55 AM,33.3,30.2,89,30.36,10.0,SE,3.5,-,N/A,,Clear,130,2013-04-26 08:55:00
4:15 AM,34.7,30.2,84,30.36,10.0,SE,4.6,-,N/A,,Clear,130,2013-04-26 09:15:00
4:35 AM,34.9,30.6,84,30.35,10.0,ESE,5.8,-,N/A,,Clear,120,2013-04-26 09:35:00
4:55 AM,36.5,30.6,79,30.35,10.0,SE,5.8,-,N/A,,Clear,130,2013-04-26 09:55:00
5:15 AM,36.7,30.7,79,30.34,10.0,SE,6.9,-,N/A,,Clear,130,2013-04-26 10:15:00
5:35 AM,36.5,31.1,81,30.34,10.0,SE,4.6,-,N/A,,Clear,130,2013-04-26 10:35:00
5:55 AM,36.0,31.1,82,30.35,10.0,SE,4.6,-,N/A,,Clear,130,2013-04-26 10:55:00
6:15 AM,35.8,31.5,84,30.35,10.0,ESE,4.6,-,N/A,,Clear,120,2013-04-26 11:15:00
6:35 AM,37.2,32.0,81,30.36,10.0,SE,5.8,-,N/A,,Clear,130,2013-04-26 11:35:00
6:55 AM,38.1,32.4,80,30.37,10.0,SE,4.6,-,N/A,,Clear,130,2013-04-26 11:55:00
7:15 AM,40.5,33.3,75,30.36,10.0,ESE,6.9,-,N/A,,Clear,120,2013-04-26 12:15:00
7:35 AM,41.7,33.8,73,30.36,10.0,SE,6.9,-,N/A,,Clear,140,2013-04-26 12:35:00
7:55 AM,44.8,35.4,70,30.37,10.0,SE,9.2,-,N/A,,Clear,140,2013-04-26 12:55:00
8:15 AM,47.3,34.3,61,30.36,10.0,SSE,8.1,17.3,N/A,,Clear,160,2013-04-26 13:15:00
8:35 AM,48.6,35.4,60,30.37,10.0,South,8.1,18.4,N/A,,Clear,170,2013-04-26 13:35:00
8:55 AM,51.1,35.8,56,30.37,10.0,SSE,12.7,16.1,N/A,,Clear,160,2013-04-26 13:55:00
9:15 AM,52.5,37.0,56,30.37,10.0,South,13.8,18.4,N/A,,Clear,180,2013-04-26 14:15:00
9:35 AM,54.0,37.4,54,30.37,10.0,South,16.1,-,N/A,,Clear,180,2013-04-26 14:35:00
9:55 AM,54.9,37.6,52,30.37,10.0,South,16.1,19.6,N/A,,Clear,170,2013-04-26 14:55:00
10:15 AM,54.9,37.4,52,30.37,10.0,SSE,17.3,-,N/A,,Clear,160,2013-04-26 15:15:00
10:35 AM,56.5,39.6,53,30.38,10.0,South,16.1,20.7,N/A,,Clear,180,2013-04-26 15:35:00
10:55 AM,57.0,39.4,52,30.38,10.0,SSE,15.0,20.7,N/A,,Clear,160,2013-04-26 15:55:00
11:15 AM,58.6,39.6,49,30.38,10.0,South,18.4,-,N/A,,Clear,170,2013-04-26 16:15:00
11:35 AM,58.3,39.9,50,30.37,10.0,South,17.3,25.3,N/A,,Clear,170,2013-04-26 16:35:00
11:55 AM,59.4,40.6,50,30.36,10.0,South,17.3,23.0,N/A,,Clear,170,2013-04-26 16:55:00
12:15 PM,59.7,41.9,52,30.36,10.0,South,18.4,25.3,N/A,,Clear,180,2013-04-26 17:15:00
12:35 PM,61.0,41.5,49,30.36,10.0,SSW,19.6,24.2,N/A,,Clear,200,2013-04-26 17:35:00
12:55 PM,61.9,42.1,48,30.35,10.0,South,17.3,27.6,N/A,,Clear,190,2013-04-26 17:55:00
1:15 PM,63.0,43.5,49,30.34,10.0,South,19.6,24.2,N/A,,Clear,190,2013-04-26 18:15:00
1:35 PM,63.3,44.6,50,30.33,10.0,SSW,18.4,21.9,N/A,,Clear,200,2013-04-26 18:35:00
1:55 PM,63.5,44.1,49,30.33,10.0,SSW,13.8,24.2,N/A,,Clear,200,2013-04-26 18:55:00
2:15 PM,64.0,43.9,48,30.32,10.0,SSW,18.4,23.0,N/A,,Clear,200,2013-04-26 19:15:00
2:35 PM,64.2,44.6,49,30.32,10.0,SSW,19.6,25.3,N/A,,Clear,210,2013-04-26 19:35:00
2:55 PM,64.2,43.9,48,30.30,10.0,South,17.3,21.9,N/A,,Scattered Clouds,190,2013-04-26 19:55:00
3:15 PM,65.3,45.0,48,30.30,10.0,SSW,15.0,24.2,N/A,,Scattered Clouds,200,2013-04-26 20:15:00
3:35 PM,64.6,44.2,48,30.30,10.0,SSW,18.4,24.2,N/A,,Scattered Clouds,210,2013-04-26 20:35:00
3:55 PM,65.3,45.5,49,30.29,10.0,South,17.3,23.0,N/A,,Clear,180,2013-04-26 20:55:00
4:15 PM,64.6,45.0,49,30.29,10.0,South,18.4,-,N/A,,Scattered Clouds,180,2013-04-26 21:15:00
4:35 PM,64.8,44.1,47,30.29,10.0,SSW,17.3,23.0,N/A,,Clear,210,2013-04-26 21:35:00
4:55 PM,64.9,44.8,48,30.29,10.0,SSW,17.3,20.7,N/A,,Scattered Clouds,200,2013-04-26 21:55:00
5:15 PM,64.4,43.7,47,30.29,10.0,SSW,15.0,19.6,N/A,,Scattered Clouds,200,2013-04-26 22:15:00
5:35 PM,62.2,43.9,51,30.29,10.0,South,13.8,20.7,N/A,,Scattered Clouds,190,2013-04-26 22:35:00
5:55 PM,62.6,44.8,52,30.29,10.0,SSW,12.7,17.3,N/A,,Mostly Cloudy,200,2013-04-26 22:55:00
6:15 PM,61.2,44.1,53,30.29,10.0,SSW,12.7,-,N/A,,Scattered Clouds,200,2013-04-26 23:15:00
6:35 PM,60.6,44.1,54,30.29,10.0,South,10.4,-,N/A,,Scattered Clouds,180,2013-04-26 23:35:00
6:55 PM,59.7,44.6,57,30.30,10.0,South,11.5,-,N/A,,Scattered Clouds,190,2013-04-26 23:55:00
7:15 PM,59.0,44.4,58,30.30,10.0,South,9.2,-,N/A,,Scattered Clouds,190,2013-04-27 00:15:00
7:35 PM,57.4,43.7,60,30.30,10.0,SSW,10.4,-,N/A,,Scattered Clouds,200,2013-04-27 00:35:00
7:55 PM,55.6,43.7,64,30.30,10.0,South,9.2,-,N/A,,Scattered Clouds,190,2013-04-27 00:55:00
8:15 PM,53.8,44.1,70,30.30,10.0,South,8.1,-,N/A,,Clear,190,2013-04-27 01:15:00
8:35 PM,53.1,44.6,73,30.31,10.0,SSW,6.9,-,N/A,,Clear,200,2013-04-27 01:35:00
8:55 PM,52.2,44.1,74,30.31,10.0,South,5.8,-,N/A,,Clear,190,2013-04-27 01:55:00
9:15 PM,52.7,43.3,70,30.31,10.0,South,4.6,-,N/A,,Clear,170,2013-04-27 02:15:00
9:35 PM,52.3,43.0,70,30.31,10.0,South,4.6,-,N/A,,Clear,180,2013-04-27 02:35:00
9:55 PM,51.6,43.3,73,30.31,10.0,SW,4.6,-,N/A,,Clear,230,2013-04-27 02:55:00
10:15 PM,48.7,43.2,81,30.32,10.0,SW,4.6,-,N/A,,Clear,230,2013-04-27 03:15:00
10:35 PM,47.3,42.8,84,30.32,10.0,SW,4.6,-,N/A,,Clear,220,2013-04-27 03:35:00
10:55 PM,46.6,42.8,87,30.32,10.0,SSW,3.5,-,N/A,,Clear,200,2013-04-27 03:55:00
11:15 PM,46.4,43.2,88,30.32,10.0,SSW,4.6,-,N/A,,Clear,210,2013-04-27 04:15:00
11:35 PM,47.8,42.8,83,30.32,10.0,SW,6.9,-,N/A,,Clear,220,2013-04-27 04:35:00
11:55 PM,46.4,42.6,87,30.32,10.0,SSW,8.1,-,N/A,,Clear,210,2013-04-27 04:55:00